This is the latest recevied weather packets stored in our database for station/object KJ5JYX. If no packets are shown the sender has not sent any weather packets the latest 10 day(s).
| Time | Temp. | Humidity | Pressure | Rain* | Wind** | Luminosity | Snow |
|---|---|---|---|---|---|---|---|
| 1777998913 | 26.11° C | 77% | 1009.7 hPa | 0 mm | - | 644 W/m² | - |
| 1777998609 | 25.56° C | 80% | 1009.9 hPa | 0 mm | - | 617 W/m² | - |
| 1777998303 | 26.11° C | 76% | 1009.7 hPa | 0 mm | - | 278 W/m² | - |
| 1777997999 | 25.56° C | 79% | 1009.8 hPa | 0 mm | - | 506 W/m² | - |
| 1777997696 | 25.56° C | 79% | 1009.6 hPa | 0 mm | - | 277 W/m² | - |
| 1777997393 | 25.56° C | 79% | 1009.7 hPa | 0 mm | - | 304 W/m² | - |
| 1777997092 | 25° C | 80% | 1009.9 hPa | 0 mm | - | 311 W/m² | - |
| 1777996788 | 25° C | 80% | 1009.9 hPa | 0 mm | - | 210 W/m² | - |
| 1777995574 | 23.89° C | 83% | 1009.7 hPa | 0 mm | - | 210 W/m² | - |
| 1777995271 | 24.44° C | 82% | 1009.9 hPa | 0 mm | - | 244 W/m² | - |
| 1777994969 | 24.44° C | 83% | 1009.7 hPa | 0 mm | - | 178 W/m² | - |
| 1777994666 | 24.44° C | 82% | 1009.6 hPa | 0 mm | - | 213 W/m² | - |
| 1777994365 | 24.44° C | 82% | 1009.5 hPa | 0 mm | - | 217 W/m² | - |
| 1777994061 | 24.44° C | 81% | 1009.8 hPa | 0 mm | - | 181 W/m² | - |
| 1777993759 | 24.44° C | 82% | 1009.6 hPa | 0 mm | - | 282 W/m² | - |
| 1777993457 | 24.44° C | 82% | 1009.5 hPa | 0 mm | - | 189 W/m² | - |
| 1777993156 | 24.44° C | 83% | 1009.7 hPa | 0 mm | - | 206 W/m² | - |
| 1777992854 | 23.89° C | 83% | 1009.5 hPa | 0 mm | - | 239 W/m² | - |
| 1777992552 | 23.89° C | 84% | 1009.9 hPa | 0 mm | - | 183 W/m² | - |
| 1777991947 | 23.33° C | 85% | 1009.8 hPa | 0 mm | - | 186 W/m² | - |
| 1777991645 | 23.33° C | 85% | 1009.8 hPa | 0 mm | - | 129 W/m² | - |
| 1777991341 | 23.33° C | 85% | 1009.7 hPa | 0 mm | - | 114 W/m² | - |
| 1777991039 | 23.33° C | 86% | 1009.8 hPa | 0 mm | - | 103 W/m² | - |
| 1777990736 | 23.33° C | 86% | 1009.7 hPa | 0 mm | - | 119 W/m² | - |
| 1777990129 | 23.33° C | 87% | 1009 hPa | 0 mm | - | 159 W/m² | - |
* Rain latest hour (hover to see other rain measurements)
** Current wind speed in m/s (hover to see current wind gust speed)